Torna al catalogo

PSLV R/B

AttivoSSO
NORAD 37390·ROCKET BODY·🇮🇳 India

Lanciato Apr 20, 2011 da Satish Dhawan Space Centre

Loading…

Prossimi Passaggi (prossime 24 ore)

TLE

AggiornatoSource: Space-Track

Epoca: Sep 14, 2026, 19:51 UTC

1 37390U 11015D   26257.82760037  .00000080  00000-0  49292-4 0  9993
2 37390  98.5169 205.5429 0018485  15.0927  13.2839 14.28358156802626

Traccia PSLV R/B in tempo reale con AllMySat

Download on the App Store